Find Starlink 30807

NORAD ID: 58192 Int'l Des: 2023-167 Owner: SPXS Country: US Constellation: starlink operational
LEOCIRCULAR

Current View

Loading 3D Globe...

About Starlink 30807

Starlink 30807 (NORAD 58192) is a starlink constellation satellite (v2 mini) launched Oct 30, 2023 by SPXS of US. It operates in LEO, CIRCULAR orbit with a mass of 730.00 kg.

About Starlink 30807

Description loading...

Upcoming Passes

Passes for default location (London). Set your location on the main map for personalized predictions.

Altitude History

Loading altitude history...

Two-Line Element Set

1 58192U 23167T 26170.68558710 .00010477 00000-0 38969-3 0 9997
2 58192 43.0016 287.4155 0001551 274.5740 85.4934 15.27582869146584
Epoch: Jun 19, 2026 • Age: 16 hours

Current Status

Altitude 482.9 km
Velocity 7.63 km/s
Sub-Earth Point 18.81°N, 41.56°E
Launch Date Oct 30, 2023
Age 2.6 years
Type internet

Technical Details

Classification Payload
Mass 730.00 kg
Dry Mass 700.00 kg
Total Mass 730.00 kg
Length 0.30 m
Diameter 4.10 m
Span 29.00 m
Shape Box + pan
Manufacturer SPXS
Bus Type Starlink V2M
Phase Status In Orbit
Owner/State SPXS/US

Most Searched